Hourly Weather Abdul-Gazy

Today, 6 December, Sunday

Time Temperature Precipitation Wind Pressure Humidity
00:00 -5°C° 0 mm 6 mps 771 mmHg 74%
01:00 -6°C° 0 mm 6 mps 771 mmHg 74%
02:00 -6°C° 0 mm 6 mps 771 mmHg 74%
03:00 -7°C° 0 mm 7 mps 771 mmHg 74%
04:00 -6°C° 0 mm 6 mps 771 mmHg 75%
05:00 -8°C° 0 mm 6 mps 771 mmHg 75%
06:00 -8°C° 0 mm 6 mps 771 mmHg 76%
07:00 -6°C° 0 mm 6 mps 771 mmHg 74%
08:00 -7°C° 0 mm 7 mps 771 mmHg 72%
09:00 -7°C° 0 mm 7 mps 771 mmHg 70%
10:00 -4°C° 0 mm 7 mps 771 mmHg 67%
11:00 -4°C° 0 mm 8 mps 771 mmHg 65%
12:00 -2°C° 0 mm 8 mps 770 mmHg 63%
13:00 -2°C° 0 mm 8 mps 770 mmHg 64%
14:00 -2°C° 0 mm 8 mps 770 mmHg 65%
15:00 -2°C° 0 mm 8 mps 770 mmHg 66%
16:00 -4°C° 0 mm 8 mps 770 mmHg 69%
17:00 -4°C° 0 mm 8 mps 770 mmHg 73%
18:00 -5°C° 0 mm 8 mps 771 mmHg 76%
19:00 -5°C° 0 mm 8 mps 771 mmHg 77%
20:00 -5°C° 0 mm 8 mps 771 mmHg 77%
21:00 -5°C° 0 mm 8 mps 771 mmHg 78%
22:00 -5°C° 0 mm 8 mps 771 mmHg 79%
23:00 -5°C° 0 mm 8 mps 771 mmHg 79%

Tomorrow, 7 December, Monday

Time Temperature Precipitation Wind Pressure Humidity
00:00 -5°C° 0 mm 8 mps 771 mmHg 80%
01:00 -5°C° 0 mm 8 mps 771 mmHg 80%
02:00 -5°C° 0 mm 8 mps 771 mmHg 81%
03:00 -5°C° 0 mm 8 mps 771 mmHg 81%
04:00 -5°C° 0 mm 8 mps 771 mmHg 81%
05:00 -5°C° 0 mm 8 mps 771 mmHg 81%
06:00 -5°C° 0 mm 8 mps 771 mmHg 81%
07:00 -4°C° 0 mm 8 mps 771 mmHg 81%
08:00 -4°C° 0 mm 9 mps 771 mmHg 81%
09:00 -4°C° 0 mm 9 mps 771 mmHg 81%
10:00 -3°C° 0 mm 9 mps 771 mmHg 80%
11:00 -3°C° 0 mm 9 mps 771 mmHg 79%
12:00 -1°C° 0 mm 9 mps 770 mmHg 79%
13:00 -1°C° 0 mm 9 mps 770 mmHg 77%
14:00 -1°C° 0 mm 9 mps 770 mmHg 76%
15:00 -1°C° 0 mm 9 mps 770 mmHg 75%
16:00 -1°C° 0 mm 9 mps 770 mmHg 76%
17:00 -1°C° 0 mm 9 mps 770 mmHg 77%
18:00 -3°C° 0 mm 9 mps 770 mmHg 78%
19:00 -3°C° 0 mm 9 mps 770 mmHg 79%
20:00 -2°C° 0 mm 8 mps 770 mmHg 80%
21:00 -2°C° 0 mm 8 mps 770 mmHg 80%
22:00 -1°C° 0 mm 8 mps 770 mmHg 78%
23:00 -1°C° 0 mm 8 mps 769 mmHg 77%

Day after tomorrow, 8 December, Tuesday

Time Temperature Precipitation Wind Pressure Humidity
00:00 -1°C° 0 mm 8 mps 769 mmHg 75%
01:00 -1°C° 0 mm 8 mps 769 mmHg 75%
02:00 -1°C° 0 mm 8 mps 769 mmHg 76%
03:00 -1°C° 0 mm 8 mps 769 mmHg 77%
04:00 -1°C° 0 mm 8 mps 769 mmHg 77%
05:00 -1°C° 0 mm 8 mps 769 mmHg 77%
06:00 -1°C° 0 mm 8 mps 768 mmHg 78%
07:00 -1°C° 0 mm 8 mps 769 mmHg 77%
08:00 0°C° 0 mm 8 mps 769 mmHg 76%
09:00 0°C° 0 mm 8 mps 769 mmHg 76%
10:00 0°C° 0 mm 8 mps 768 mmHg 74%
11:00 +1°C° 0 mm 8 mps 768 mmHg 72%
12:00 +1°C° 0 mm 8 mps 768 mmHg 70%
13:00 +1°C° 0 mm 8 mps 768 mmHg 70%
14:00 +1°C° 0 mm 8 mps 768 mmHg 70%
15:00 +1°C° 0 mm 8 mps 768 mmHg 70%
16:00 +1°C° 0 mm 8 mps 768 mmHg 71%
17:00 +2°C° 0 mm 7 mps 768 mmHg 72%
18:00 0°C° 0 mm 7 mps 768 mmHg 73%
19:00 0°C° 0 mm 7 mps 768 mmHg 74%
20:00 0°C° 0 mm 7 mps 768 mmHg 74%
21:00 0°C° 0 mm 7 mps 768 mmHg 74%
22:00 0°C° 0 mm 7 mps 768 mmHg 75%
23:00 0°C° 0 mm 7 mps 768 mmHg 76%

9 December, Wednesday

Time Temperature Precipitation Wind Pressure Humidity
00:00 0°C° 0 mm 7 mps 768 mmHg 77%
01:00 0°C° 0 mm 7 mps 768 mmHg 78%
02:00 0°C° 0 mm 7 mps 768 mmHg 79%
03:00 0°C° 0 mm 7 mps 768 mmHg 80%
04:00 0°C° 0 mm 7 mps 768 mmHg 81%
05:00 0°C° 0 mm 7 mps 768 mmHg 83%
06:00 0°C° 0 mm 7 mps 768 mmHg 84%
07:00 0°C° 0.1 mm 7 mps 768 mmHg 84%
08:00 +1°C° 0.1 mm 8 mps 768 mmHg 84%
09:00 +1°C° 0.1 mm 8 mps 768 mmHg 84%
10:00 +1°C° 0.1 mm 8 mps 768 mmHg 83%
11:00 +2°C° 0.1 mm 8 mps 768 mmHg 82%
12:00 +2°C° 0.1 mm 8 mps 768 mmHg 81%
13:00 +2°C° 0.1 mm 8 mps 768 mmHg 80%
14:00 +2°C° 0.1 mm 8 mps 768 mmHg 79%
15:00 +2°C° 0.1 mm 8 mps 768 mmHg 78%
16:00 +3°C° 0 mm 7 mps 768 mmHg 78%
17:00 +2°C° 0 mm 7 mps 768 mmHg 78%
18:00 +2°C° 0 mm 7 mps 769 mmHg 79%
19:00 0°C° 0 mm 7 mps 769 mmHg 78%
20:00 +1°C° 0 mm 6 mps 769 mmHg 78%
21:00 -1°C° 0 mm 6 mps 769 mmHg 78%
22:00 -1°C° 0 mm 6 mps 769 mmHg 77%
23:00 -1°C° 0 mm 5 mps 769 mmHg 77%

10 December, Thursday

Time Temperature Precipitation Wind Pressure Humidity
00:00 -1°C° 0 mm 5 mps 769 mmHg 76%
01:00 -2°C° 0 mm 5 mps 770 mmHg 77%
02:00 -2°C° 0 mm 5 mps 770 mmHg 78%
03:00 -2°C° 0 mm 5 mps 770 mmHg 79%
04:00 -3°C° 0 mm 4 mps 770 mmHg 80%
05:00 -3°C° 0 mm 4 mps 770 mmHg 80%
06:00 -3°C° 0 mm 4 mps 770 mmHg 81%
07:00 -2°C° 0 mm 5 mps 770 mmHg 79%
08:00 -2°C° 0 mm 5 mps 770 mmHg 77%
09:00 -1°C° 0 mm 5 mps 770 mmHg 75%
10:00 -1°C° 0 mm 6 mps 770 mmHg 71%
11:00 +1°C° 0 mm 6 mps 770 mmHg 67%
12:00 +3°C° 0 mm 6 mps 770 mmHg 64%
13:00 +3°C° 0 mm 6 mps 770 mmHg 63%
14:00 +3°C° 0 mm 6 mps 770 mmHg 63%
15:00 +3°C° 0 mm 6 mps 770 mmHg 63%
16:00 +2°C° 0 mm 6 mps 770 mmHg 66%
17:00 +2°C° 0 mm 6 mps 770 mmHg 69%
18:00 +1°C° 0 mm 6 mps 770 mmHg 71%
19:00 +1°C° 0 mm 6 mps 770 mmHg 72%
20:00 +1°C° 0 mm 6 mps 770 mmHg 74%
21:00 +1°C° 0 mm 6 mps 770 mmHg 75%
22:00 +2°C° 0 mm 6 mps 769 mmHg 74%
23:00 +2°C° 0 mm 6 mps 769 mmHg 74%

11 December, Friday

Time Temperature Precipitation Wind Pressure Humidity
00:00 +2°C° 0 mm 6 mps 769 mmHg 73%
01:00 +1°C° 0 mm 6 mps 769 mmHg 74%
02:00 +1°C° 0 mm 6 mps 768 mmHg 74%
03:00 +1°C° 0 mm 6 mps 768 mmHg 74%
04:00 +1°C° 0 mm 6 mps 768 mmHg 77%
05:00 -1°C° 0 mm 6 mps 768 mmHg 79%
06:00 -1°C° 0 mm 6 mps 768 mmHg 82%
07:00 +1°C° 0 mm 6 mps 768 mmHg 79%
08:00 0°C° 0 mm 7 mps 768 mmHg 75%
09:00 +1°C° 0 mm 8 mps 768 mmHg 72%
10:00 +2°C° 0 mm 8 mps 768 mmHg 67%
11:00 +3°C° 0 mm 9 mps 767 mmHg 62%
12:00 +5°C° 0 mm 9 mps 767 mmHg 57%
13:00 +5°C° 0 mm 9 mps 767 mmHg 57%
14:00 +5°C° 0 mm 9 mps 767 mmHg 57%
15:00 +3°C° 0 mm 9 mps 767 mmHg 58%
16:00 +3°C° 0 mm 9 mps 767 mmHg 63%
17:00 +2°C° 0 mm 8 mps 767 mmHg 68%
18:00 +1°C° 0 mm 8 mps 767 mmHg 74%
19:00 +1°C° 0 mm 8 mps 767 mmHg 75%
20:00 0°C° 0 mm 7 mps 767 mmHg 76%
21:00 0°C° 0 mm 7 mps 767 mmHg 77%
22:00 0°C° 0 mm 7 mps 767 mmHg 76%
23:00 0°C° 0 mm 7 mps 767 mmHg 75%
Show more

We Need Your Consent

Meteoprog and our Service Providers may store and access personal data such as cookies, device identifiers or other similar technologies on your device and process such data to personalise content and ads, as well as provide social media features and to analyse the traffic.

  • Store and/or access information on your device

    Cookies, device identifiers or other information can be stored or accessed on your device for the purposes indicated above.

  • Personalised ads and content, ad and content measurement, audience insights, and products development

    Ads and content can be personalised based on a profile. More data can be added to better personalise ads and content. Ad and content performance can be measured. Insights about the audience who saw the ads and content can be derived. Such data can be used to develop or improve user’s experience, systems and software.

By clicking ‘I Agree’ you will allow the use of indicated cookies, device identifiers, web beacons or other similar technologies. Your settings can be changed in the browser on your device.

For certain purposes, legitimate interests may be relied on, rather than consent. You can read more about this in our Privacy and Cookie Policy.